Time,TemperatureF,DewpointF,PressureIn,WindDirection,WindDirectionDegrees,WindSpeedMPH,WindSpeedGustMPH,Humidity,HourlyPrecipIn,Conditions,Clouds,dailyrainin,SolarRadiationWatts/m^2,SoftwareType,DateUTC
2013-05-10 02:31:00,63.5,54.7,29.95,West,273,2.5,9.2,73,0.00,BKN,OVC,0.51,107.0,WeatherDisplay:10.37,2013-05-10 06:31:00,
2013-05-10 03:12:00,63.5,54.7,29.95,West,273,2.5,9.2,73,0.00,BKN,OVC,0.51,107.0,WeatherDisplay:10.37,2013-05-10 07:12:00,
2013-05-10 07:47:00,63.5,54.7,29.95,West,273,2.5,9.2,73,0.00,BKN,OVC,0.51,107.0,WeatherDisplay:10.37,2013-05-10 11:47:00,
2013-05-10 17:30:00,63.8,59.5,29.77,NW,308,0.0,3.0,86,0.02,RA,OVC,0.20,70.0,WeatherDisplay:10.37,2013-05-10 21:30:00,
2013-05-10 17:39:00,63.8,59.9,29.77,WNW,296,1.7,4.0,87,0.16,RA,OVC,0.21,76.0,WeatherDisplay:10.37,2013-05-10 21:39:00,
2013-05-10 17:47:00,63.9,60.3,29.77,West,277,0.5,3.5,88,0.14,RA,OVC,0.21,42.0,WeatherDisplay:10.37,2013-05-10 21:47:00,
2013-05-10 17:52:00,63.9,60.3,29.77,West,275,1.0,3.5,88,0.14,RA,OVC,0.21,35.0,WeatherDisplay:10.37,2013-05-10 21:52:00,
2013-05-10 17:57:00,63.9,60.3,29.77,West,275,0.0,1.2,88,0.14,OVC,,0.21,18.0,WeatherDisplay:10.37,2013-05-10 21:57:00,
2013-05-10 17:58:00,63.9,60.3,29.78,West,275,0.0,1.2,88,0.14,OVC,,0.21,16.0,WeatherDisplay:10.37,2013-05-10 21:58:00,
2013-05-10 18:03:00,63.9,60.3,29.78,West,275,0.0,1.2,88,0.11,OVC,,0.21,19.0,WeatherDisplay:10.37,2013-05-10 22:03:00,
2013-05-10 18:08:00,63.8,60.5,29.78,West,275,0.4,3.0,89,0.03,OVC,,0.21,35.0,WeatherDisplay:10.37,2013-05-10 22:08:00,
2013-05-10 18:13:00,63.8,60.5,29.78,West,275,0.5,3.5,89,0.03,OVC,,0.22,28.0,WeatherDisplay:10.37,2013-05-10 22:13:00,
2013-05-10 18:18:00,63.8,60.5,29.78,West,275,0.0,0.0,89,0.04,RA,OVC,0.22,28.0,WeatherDisplay:10.37,2013-05-10 22:18:00,
2013-05-10 18:23:00,63.8,60.5,29.78,West,275,0.0,1.2,89,0.04,RA,OVC,0.22,28.0,WeatherDisplay:10.37,2013-05-10 22:23:00,
2013-05-10 18:28:00,63.8,60.5,29.78,West,275,0.1,1.2,89,0.03,BKN,OVC,0.22,21.0,WeatherDisplay:10.37,2013-05-10 22:28:00,
2013-05-10 18:33:00,63.8,60.5,29.78,West,275,0.0,1.2,89,0.02,BKN,OVC,0.22,18.0,WeatherDisplay:10.37,2013-05-10 22:33:00,
2013-05-10 18:38:00,63.8,60.8,29.78,West,275,0.0,1.2,90,0.02,RA,OVC,0.23,23.0,WeatherDisplay:10.37,2013-05-10 22:38:00,
2013-05-10 18:43:00,63.8,60.8,29.78,West,275,1.1,3.5,90,0.02,RA,OVC,0.23,19.0,WeatherDisplay:10.37,2013-05-10 22:43:00,
2013-05-10 18:48:00,63.7,60.7,29.78,West,275,0.8,3.5,90,0.02,OVC,,0.23,16.0,WeatherDisplay:10.37,2013-05-10 22:48:00,
2013-05-10 18:53:00,63.6,60.6,29.77,West,261,2.3,6.0,90,0.02,OVC,,0.23,14.0,WeatherDisplay:10.37,2013-05-10 22:53:00,
2013-05-10 18:58:00,63.6,60.6,29.77,West,260,2.2,4.0,90,0.02,OVC,,0.23,11.0,WeatherDisplay:10.37,2013-05-10 22:58:00,
2013-05-10 19:03:00,63.5,60.5,29.77,WSW,254,3.1,7.0,90,0.02,-RA,OVC,0.23,11.0,WeatherDisplay:10.37,2013-05-10 23:03:00,
2013-05-10 19:08:00,63.5,60.5,29.77,SSW,205,5.4,10.0,90,0.02,-RA,OVC,0.23,7.0,WeatherDisplay:10.37,2013-05-10 23:08:00,
2013-05-10 19:13:00,63.2,59.9,29.77,SSW,202,4.6,13.8,89,0.02,-RA,OVC,0.24,5.0,WeatherDisplay:10.37,2013-05-10 23:13:00,
2013-05-10 19:18:00,63.0,59.7,29.77,SSW,207,6.8,13.0,89,0.02,-RA,OVC,0.24,5.0,WeatherDisplay:10.37,2013-05-10 23:18:00,
2013-05-10 19:23:00,62.7,59.1,29.77,SSW,196,6.4,11.5,88,0.03,-RA,OVC,0.25,0.0,WeatherDisplay:10.37,2013-05-10 23:23:00,
2013-05-10 19:28:00,62.3,58.4,29.77,SSW,205,7.4,13.0,87,0.04,-RA,OVC,0.26,0.0,WeatherDisplay:10.37,2013-05-10 23:28:00,
2013-05-10 19:33:00,62.1,58.2,29.77,WSW,238,5.5,15.0,87,0.05,-RA,OVC,0.27,0.0,WeatherDisplay:10.37,2013-05-10 23:33:00,
2013-05-10 19:38:00,61.8,57.9,29.77,SW,215,5.9,13.8,87,0.06,-RA,OVC,0.29,0.0,WeatherDisplay:10.37,2013-05-10 23:38:00,
2013-05-10 19:43:00,61.5,57.6,29.77,SW,228,5.5,16.1,87,0.06,-RA,OVC,0.29,0.0,WeatherDisplay:10.37,2013-05-10 23:43:00,
2013-05-10 19:48:00,61.3,57.4,29.77,SW,217,7.7,13.0,87,0.07,-RA,OVC,0.30,0.0,WeatherDisplay:10.37,2013-05-10 23:48:00,
2013-05-10 19:53:00,61.1,57.8,29.77,SSW,210,5.3,16.1,89,0.07,-RA,OVC,0.30,0.0,WeatherDisplay:10.37,2013-05-10 23:53:00,
2013-05-10 19:58:00,61.0,57.1,29.77,SSW,207,6.5,15.0,87,0.08,-RA,OVC,0.31,0.0,WeatherDisplay:10.37,2013-05-10 23:58:00,
2013-05-10 20:03:00,60.9,57.0,29.77,WSW,248,8.3,13.0,87,0.09,-RA,OVC,0.32,0.0,WeatherDisplay:10.37,2013-05-11 00:03:00,
2013-05-10 20:08:00,60.8,57.2,29.77,SSW,202,6.9,11.5,88,0.10,-RA,OVC,0.34,0.0,WeatherDisplay:10.37,2013-05-11 00:08:00,
2013-05-10 20:13:00,60.7,57.1,29.76,SSW,202,4.9,10.4,88,0.12,-RA,OVC,0.35,0.0,WeatherDisplay:10.37,2013-05-11 00:13:00,
2013-05-10 20:18:00,60.7,57.1,29.76,SSW,196,4.8,10.4,88,0.12,-RA,OVC,0.36,0.0,WeatherDisplay:10.37,2013-05-11 00:18:00,
2013-05-10 20:23:00,60.6,57.0,29.75,South,187,1.8,6.9,88,0.12,-RA,OVC,0.37,0.0,WeatherDisplay:10.37,2013-05-11 00:23:00,
2013-05-10 20:28:00,60.5,57.2,29.76,SSW,193,4.7,10.4,89,0.12,-RA,OVC,0.38,0.0,WeatherDisplay:10.37,2013-05-11 00:28:00,
2013-05-10 20:33:00,60.5,57.2,29.76,SSW,196,4.2,8.1,89,0.12,-RA,OVC,0.39,0.0,WeatherDisplay:10.37,2013-05-11 00:33:00,
2013-05-10 20:38:00,60.4,57.1,29.76,SW,231,5.5,11.5,89,0.11,-RA,OVC,0.39,0.0,WeatherDisplay:10.37,2013-05-11 00:38:00,
2013-05-10 20:43:00,60.4,57.1,29.76,SW,217,5.1,13.0,89,0.11,-RA,OVC,0.40,0.0,WeatherDisplay:10.37,2013-05-11 00:43:00,
2013-05-10 20:48:00,60.4,57.1,29.76,SSW,213,5.4,11.0,89,0.10,-RA,OVC,0.41,0.0,WeatherDisplay:10.37,2013-05-11 00:48:00,
2013-05-10 20:53:00,60.4,57.1,29.76,SSW,213,4.7,9.2,89,0.11,-RA,OVC,0.41,0.0,WeatherDisplay:10.37,2013-05-11 00:53:00,
2013-05-10 20:58:00,60.3,57.0,29.76,SW,229,4.4,9.0,89,0.10,-RA,OVC,0.41,0.0,WeatherDisplay:10.37,2013-05-11 00:58:00,
2013-05-10 21:03:00,60.3,57.0,29.76,SW,234,2.9,10.4,89,0.10,-RA,OVC,0.42,0.0,WeatherDisplay:10.37,2013-05-11 01:03:00,
2013-05-10 21:08:00,60.2,56.9,29.76,SW,233,3.0,6.0,89,0.09,-RA,OVC,0.42,0.0,WeatherDisplay:10.37,2013-05-11 01:08:00,
2013-05-10 21:13:00,60.2,56.9,29.76,SW,236,3.0,5.0,89,0.08,-RA,OVC,0.43,0.0,WeatherDisplay:10.37,2013-05-11 01:13:00,
2013-05-10 21:18:00,60.1,56.8,29.76,SW,229,4.6,9.2,89,0.07,-RA,OVC,0.43,0.0,WeatherDisplay:10.37,2013-05-11 01:18:00,
2013-05-10 21:23:00,60.0,56.7,29.76,SW,229,3.8,5.0,89,0.06,-RA,OVC,0.43,0.0,WeatherDisplay:10.37,2013-05-11 01:23:00,
2013-05-10 21:28:00,59.9,56.6,29.76,SW,234,2.2,4.0,89,0.06,-RA,OVC,0.44,0.0,WeatherDisplay:10.37,2013-05-11 01:28:00,
2013-05-10 21:33:00,59.8,56.6,29.76,SW,222,3.6,7.0,89,0.05,-RA,OVC,0.44,0.0,WeatherDisplay:10.37,2013-05-11 01:33:00,
2013-05-10 21:35:00,59.8,56.6,29.76,SW,223,3.0,7.0,89,0.00,RA,OVC,0.44,0.0,WeatherDisplay:10.37,2013-05-11 01:35:00,
2013-05-10 21:38:00,59.8,56.9,29.76,SW,219,3.3,8.1,90,0.05,-RA,OVC,0.44,0.0,WeatherDisplay:10.37,2013-05-11 01:38:00,
2013-05-10 21:40:00,59.7,56.8,29.76,SW,225,1.0,8.0,90,0.01,RA,OVC,0.45,0.0,WeatherDisplay:10.37,2013-05-11 01:40:00,
2013-05-10 21:43:00,59.7,56.8,29.76,SW,219,0.3,6.9,90,0.04,-RA,OVC,0.44,0.0,WeatherDisplay:10.37,2013-05-11 01:43:00,
2013-05-10 21:45:00,59.7,56.8,29.76,SW,225,3.0,7.0,90,0.01,RA,OVC,0.45,0.0,WeatherDisplay:10.37,2013-05-11 01:45:00,
2013-05-10 21:51:00,59.6,56.7,29.76,SW,226,5.1,17.3,90,0.03,-RA,OVC,0.45,0.0,WeatherDisplay:10.37,2013-05-11 01:51:00,
2013-05-10 21:56:00,59.6,56.7,29.76,SW,226,2.5,4.0,90,0.03,-RA,OVC,0.45,0.0,WeatherDisplay:10.37,2013-05-11 01:56:00,
2013-05-10 22:01:00,59.6,56.7,29.75,SW,224,2.9,7.0,90,0.02,-RA,OVC,0.45,0.0,WeatherDisplay:10.37,2013-05-11 02:01:00,
2013-05-10 22:06:00,59.5,56.6,29.75,SW,224,3.1,17.3,90,0.02,-RA,OVC,0.45,0.0,WeatherDisplay:10.37,2013-05-11 02:06:00,
2013-05-10 22:10:00,59.5,56.6,29.75,SW,220,3.0,8.0,90,0.00,RA,OVC,0.45,0.0,WeatherDisplay:10.37,2013-05-11 02:10:00,
2013-05-10 22:15:00,59.6,56.7,29.75,SW,220,3.0,10.0,90,0.00,CLR,OVC,0.45,0.0,WeatherDisplay:10.37,2013-05-11 02:15:00,
2013-05-10 22:20:00,59.6,56.7,29.75,SW,216,5.0,8.0,90,0.01,RA,OVC,0.46,0.0,WeatherDisplay:10.37,2013-05-11 02:20:00,
2013-05-10 22:25:00,59.6,56.7,29.75,SW,215,2.0,8.0,90,0.01,RA,OVC,0.46,0.0,WeatherDisplay:10.37,2013-05-11 02:25:00,
2013-05-10 22:30:00,59.6,56.7,29.74,SW,225,1.0,3.0,90,0.01,RA,OVC,0.49,0.0,WeatherDisplay:10.37,2013-05-11 02:30:00,
2013-05-10 22:35:00,59.6,56.7,29.74,SW,225,1.0,3.0,90,0.01,RA,OVC,0.47,0.0,WeatherDisplay:10.37,2013-05-11 02:35:00,
2013-05-10 22:40:00,59.6,56.7,29.74,SW,225,1.0,5.0,90,0.01,RA,OVC,0.49,0.0,WeatherDisplay:10.37,2013-05-11 02:40:00,
2013-05-10 22:45:00,59.6,56.7,29.74,SW,217,1.8,5.0,90,0.04,-RA,OVC,0.49,0.0,WeatherDisplay:10.37,2013-05-11 02:45:00,
2013-05-10 22:50:00,59.5,56.6,29.74,SW,217,1.2,4.6,90,0.04,-RA,OVC,0.49,0.0,WeatherDisplay:10.37,2013-05-11 02:50:00,
2013-05-10 22:55:00,59.5,56.6,29.74,SW,217,0.2,3.5,90,0.04,-RA,OVC,0.50,0.0,WeatherDisplay:10.37,2013-05-11 02:55:00,
2013-05-10 23:00:00,59.5,56.9,29.74,SW,217,2.5,6.9,91,0.04,-RA,OVC,0.50,0.0,WeatherDisplay:10.37,2013-05-11 03:00:00,
2013-05-10 23:05:00,59.5,56.9,29.74,SW,217,0.3,3.5,91,0.03,-RA,OVC,0.50,0.0,WeatherDisplay:10.37,2013-05-11 03:05:00,
2013-05-10 23:10:00,59.5,56.9,29.73,SW,217,0.3,3.5,91,0.04,-RA,OVC,0.51,0.0,WeatherDisplay:10.37,2013-05-11 03:10:00,
2013-05-10 23:15:00,59.5,56.9,29.73,SW,217,0.9,4.6,91,0.04,-RA,OVC,0.51,0.0,WeatherDisplay:10.37,2013-05-11 03:15:00,
2013-05-10 23:20:00,59.5,56.9,29.73,SW,216,0.3,4.6,91,0.04,-RA,OVC,0.51,0.0,WeatherDisplay:10.37,2013-05-11 03:20:00,
2013-05-10 23:25:00,59.4,56.8,29.73,SW,216,0.8,3.5,91,0.03,-RA,OVC,0.51,0.0,WeatherDisplay:10.37,2013-05-11 03:25:00,
2013-05-10 23:30:00,59.5,56.9,29.73,SW,216,0.1,4.6,91,0.03,-RA,OVC,0.51,0.0,WeatherDisplay:10.37,2013-05-11 03:30:00,
2013-05-10 23:35:00,59.4,56.8,29.73,SSW,206,1.9,5.0,91,0.02,-RA,OVC,0.51,0.0,WeatherDisplay:10.37,2013-05-11 03:35:00,
2013-05-10 23:40:00,59.5,56.9,29.72,SSW,213,1.6,6.9,91,0.03,-RA,OVC,0.52,0.0,WeatherDisplay:10.37,2013-05-11 03:40:00,
2013-05-10 23:45:00,59.5,56.9,29.72,SW,215,3.7,7.0,91,0.03,-RA,OVC,0.52,0.0,WeatherDisplay:10.37,2013-05-11 03:45:00,
2013-05-10 23:50:00,59.5,56.9,29.72,SW,219,3.4,6.0,91,0.03,-RA,OVC,0.52,0.0,WeatherDisplay:10.37,2013-05-11 03:50:00,
2013-05-10 23:55:00,59.5,56.9,29.73,SW,219,5.1,10.4,91,0.02,-RA,OVC,0.52,0.0,WeatherDisplay:10.37,2013-05-11 03:55:00,